Showing default

SNUSAT-2, 43782

Orbit data source: Space-Track

SNUSAT-2, 43782 is a payload satellite owned by SNU (KR) in SSO that was launched on Mon, 03 Dec 2018 UTC via an FALCON 9 launch vehicle from the Air Force Western Test Range (AFWTR). Payload-class satellites include a variety of spacecraft equipped with specific instruments for various scientific and technological missions. These include communications satellites like Starlink; space stations such as the ISS; scientific satellites like the Hubble; Earth observation satellites from companies like Planet Labs, Umbra, and HawkEye 360; GPS; miniature CubeSats for education and research; and military/defense satellites.

Loading next visibility...
Identifier
43782, 2018-099AA
Orbit
SSO
Country
Flag of UnknownUnknown / SKOR
Related business
Manufacturer
SNU
Mission
Operational Amateur Technology
Bus & Motor
CUBESAT 3U, Unknown motor
Mass
4 kg wet, 4 kg dry
Launch date (UTC)
2018-12-03 (7 years ago)
Launch vehicle
FALCON 9
Launch site
Air Force Western Test Range (AFWTR)
Object type
Payload
Rocket body
Debris
Shape & HBR
Box, 0.1 m
Radar Cross Section
0.035 m², Small (<0.1 m²)

Expand to show TLE details & history
Last TLE update: 16 hours ago

TLE from 16 hours ago
0 SNUSAT-2
1 43782U 18099AA  25299.12072285  .00009676  00000-0  49133-3 0  9996
2 43782  97.4419 351.3675 0012240  40.3765 319.8374 15.17038799377488
Epoch: 2025-10-26T02:53Z
TLE epoch observation values (Epoch: 2025-10-26T02:53:50.454Z)
Latitude
-0.00008°
Longitude
-86.83419°
Altitude
511.436 km
Speed
7.612 km/s
True Right ascension
23h 25m 28s
True Declination
0° 00' 00"
Sunlit
Object was in full shadow at epoch
Visualization orbit readout
Latitude
Unknown
Longitude
Unknown
Altitude
Unknown
Speed
Unknown
Apparent Right ascension
Unknown
Apparent Declination
Unknown
Sunlit
N/A
Visualization observer readout
Local Sidereal Time
14:17:30
Azimuth
Unknown
Elevation
Unknown
Doppler factor
Unknown
Orbital elements
Apogee altitude
520.2 km
Perigee altitude
503.334 km
Semi-major axis
6,889.904 km
Eccentricity
0.00122
Inclination
97.4419°
RAAN
351.3675°
Arg. of periapsis
40.3765°
True anomaly
319.74683°
Mean anomaly
319.8374°
Eccentric anomaly
319.79213°
Mean motion
3.7951 °/min
Orbital period
94.86 mins
BSTAR
0.00049133
Loading maneuver chart data...
Computing Atmospheric mass density...
Loading historical data...
Loading historical data...
Loading historical data...
Loading historical data...
Loading historical data...
Loading historical data...
Loading historical data...

Documentation

Showing up to 5 results
|